DW0215 Kalamaria GR current weather conditions

sailwx.info

Wind from 273 at 4 knots gusting 5

Air temperature 29.4° C
Dewpoint 16.2° C

Last reported at 2018-Jul-16 08:05 UTC.
Time now 2018-Jul-16 08:54 UTC

Location: N 40°35' E 022°57'.
View on Google Maps.

See reports from other nearby stations

  
Tides and Currents Weather Stations Pressure Air Temp Water Temp Dewpoint Dewpoint Depression Visibility Wind Speed Wind Dir Waves Ship Positions
date/time (UTC)wind fromknots sea level pressurealtimeterstation pressurevisibilityair tempwater tempwave heightnotes
2018-Jul-16 08:05 273 4 gusting 5 29.4
2018-Jul-16 08:00 291 5 gusting 6 28.9
2018-Jul-16 07:55 245 2 gusting 8 28.9
2018-Jul-16 07:50 321 4 gusting 5 28.9
2018-Jul-16 07:45 311 3 gusting 6 28.9
2018-Jul-16 07:40 277 5 gusting 7 28.3
2018-Jul-16 07:30 294 6 gusting 8 28.3
2018-Jul-16 07:25 249 2 gusting 6 27.8
2018-Jul-16 07:15 292 2 gusting 6 27.8
2018-Jul-16 07:10 273 4 gusting 5 27.8
2018-Jul-16 07:00 279 2 gusting 6 27.2
2018-Jul-16 06:55 265 4 gusting 6 27.8
2018-Jul-16 06:45 257 2 gusting 2 27.2
2018-Jul-16 06:40 257 0 gusting 2 26.7
2018-Jul-16 06:30 294 5 gusting 6 26.7
2018-Jul-16 06:25 309 2 gusting 4 26.7
2018-Jul-16 06:20 298 3 gusting 7 26.7
2018-Jul-16 06:10 305 4 gusting 5 26.7
2018-Jul-16 06:05 311 5 gusting 6 26.1
2018-Jul-16 05:55 336 0 gusting 2 26.1
2018-Jul-16 05:50 300 2 gusting 5 26.1
2018-Jul-16 05:45 319 1 gusting 4 26.1
2018-Jul-16 05:35 327 3 gusting 5 25.6
2018-Jul-16 05:30 351 5 gusting 6 25.6
2018-Jul-16 05:20 311 5 gusting 8 25.6
2018-Jul-16 05:15 355 2 gusting 6 25.6
2018-Jul-16 05:05 323 1 gusting 5 25.6
2018-Jul-16 04:55 314 5 gusting 10 25.0
2018-Jul-16 04:45 323 5 gusting 7 25.0
2018-Jul-16 04:40 25.0
2018-Jul-16 04:35 012 3 gusting 10 25.0
2018-Jul-16 04:30 006 5 gusting 10 25.0
2018-Jul-16 04:25 352 4 gusting 10 25.0
2018-Jul-16 04:15 324 5 gusting 6 25.0
2018-Jul-16 04:10 317 4 gusting 8 25.0
2018-Jul-16 04:05 293 5 gusting 6 25.0
2018-Jul-16 03:55 328 1 gusting 6 25.0
2018-Jul-16 03:50 323 2 gusting 6 25.0
2018-Jul-16 03:45 328 2 gusting 6 25.0
2018-Jul-16 03:35 001 3 gusting 6 25.0
2018-Jul-16 03:30 003 2 gusting 7 25.0
2018-Jul-16 03:25 039 1 gusting 6 25.0
2018-Jul-16 03:20 284 1 gusting 4 24.4
2018-Jul-16 03:15 283 1 gusting 5 24.4
2018-Jul-16 03:10 281 0 gusting 2 24.4
2018-Jul-16 03:05 281 0 gusting 2 24.4
2018-Jul-16 03:00 281 0 gusting 6 23.9
2018-Jul-16 02:55 259 2 gusting 4 23.9
2018-Jul-16 02:50 259 1 gusting 5 23.9
2018-Jul-16 02:45 258 0 gusting 4 23.9
2018-Jul-16 02:40 258 1 gusting 4 24.4
2018-Jul-16 02:35 257 0 gusting 2 24.4
2018-Jul-16 02:30 257 1 gusting 5 24.4
2018-Jul-16 02:25 258 0 gusting 2 23.9
2018-Jul-16 02:20 258 23.9
2018-Jul-16 02:15 258 1 gusting 4 23.9
2018-Jul-16 02:10 258 23.9
2018-Jul-16 02:05 258 23.9
2018-Jul-16 01:55 257 1 gusting 5 23.9
2018-Jul-16 01:50 257 2 gusting 5 23.9
2018-Jul-16 01:45 257 1 gusting 4 23.9
2018-Jul-16 01:40 257 0 gusting 5 23.9
2018-Jul-16 01:35 257 1 gusting 4 23.9
2018-Jul-16 01:30 257 1 gusting 2 23.9
2018-Jul-16 01:25 257 2 gusting 5 23.3
2018-Jul-16 01:20 257 1 gusting 2 23.9
2018-Jul-16 01:15 257 1 gusting 4 23.9
2018-Jul-16 01:10 257 1 gusting 5 23.9
2018-Jul-16 01:00 248 0 gusting 2 23.9
2018-Jul-16 00:50 248 1 gusting 4 23.9
2018-Jul-16 00:45 247 0 gusting 2 23.9
2018-Jul-16 00:35 243 1 gusting 4 23.9
2018-Jul-16 00:30 243 1 gusting 5 23.9
2018-Jul-16 00:25 243 2 gusting 6 23.9
2018-Jul-16 00:20 246 3 gusting 6 24.4
2018-Jul-16 00:15 250 1 gusting 5 24.4
2018-Jul-16 00:10 247 2 gusting 6 24.4
2018-Jul-16 00:00 243 3 gusting 8 25.6
2018-Jul-15 23:55 281 4 gusting 10 25.6
2018-Jul-15 23:45 279 4 gusting 11 25.6
2018-Jul-15 23:40 284 4 gusting 7 25.6
2018-Jul-15 23:35 280 2 gusting 8 26.1
2018-Jul-15 23:30 267 2 gusting 6 26.1
2018-Jul-15 23:25 268 2 gusting 6 26.1
2018-Jul-15 23:15 272 1 gusting 6 26.1
2018-Jul-15 23:10 286 2 gusting 6 26.7
2018-Jul-15 23:05 296 1 gusting 6 26.7
2018-Jul-15 23:00 291 2 gusting 6 26.7
2018-Jul-15 22:55 295 3 gusting 6 26.7
2018-Jul-15 22:50 310 2 gusting 6 26.7
2018-Jul-15 22:45 324 3 gusting 6 26.7
2018-Jul-15 22:40 334 1 gusting 5 26.7
2018-Jul-15 22:35 345 2 gusting 5 26.7
2018-Jul-15 22:30 349 2 gusting 20 26.7
2018-Jul-15 22:25 346 3 gusting 6 26.7
2018-Jul-15 22:20 319 3 gusting 6 27.2
2018-Jul-15 22:15 322 1 gusting 8 27.2
2018-Jul-15 22:10 328 2 gusting 7 27.2
2018-Jul-15 22:05 332 5 gusting 8 27.2
2018-Jul-15 22:00 359 4 gusting 11 27.2
2018-Jul-15 21:55 323 6 gusting 13 27.2
2018-Jul-15 21:50 329 6 gusting 12 27.2
2018-Jul-15 21:45 288 6 gusting 19 27.2
2018-Jul-15 21:40 292 9 gusting 17 27.2
2018-Jul-15 21:35 274 6 gusting 15 27.2
2018-Jul-15 21:30 113 27.2
2018-Jul-15 21:25 113 26.7
2018-Jul-15 21:20 113 26.7
2018-Jul-15 21:15 113 26.7
2018-Jul-15 21:10 113 0 gusting 2 26.7
2018-Jul-15 21:05 113 0 gusting 1 26.7
2018-Jul-15 21:00 113 1 gusting 4 26.7
2018-Jul-15 20:55 114 0 gusting 4 26.7
2018-Jul-15 20:50 114 0 gusting 6 26.7
2018-Jul-15 20:45 113 2 gusting 6 26.7
2018-Jul-15 20:40 113 3 gusting 6 26.7
2018-Jul-15 20:35 114 5 gusting 6 26.7
2018-Jul-15 20:30 115 2 gusting 6 26.7
2018-Jul-15 20:20 117 4 gusting 7 27.2
2018-Jul-15 20:15 133 2 gusting 4 27.2
2018-Jul-15 20:10 136 2 gusting 6 27.2
2018-Jul-15 20:05 146 2 gusting 6 27.2
2018-Jul-15 20:00 128 2 gusting 6 27.8
2018-Jul-15 19:55 124 4 gusting 7 27.8
2018-Jul-15 19:50 120 4 gusting 7 27.8
2018-Jul-15 19:45 130 2 gusting 4 27.8
2018-Jul-15 19:40 132 2 gusting 6 28.3
2018-Jul-15 19:35 131 3 gusting 6 28.3
2018-Jul-15 19:30 128 4 gusting 7 28.3
2018-Jul-15 19:25 126 3 gusting 5 28.3
2018-Jul-15 19:20 128 3 gusting 5 28.3
2018-Jul-15 19:15 129 2 gusting 6 28.9
2018-Jul-15 19:10 132 2 gusting 6 28.9
2018-Jul-15 19:05 131 1 gusting 6 28.9
2018-Jul-15 19:00 128 3 gusting 7 29.4
2018-Jul-15 18:55 140 2 gusting 5 29.4
2018-Jul-15 18:50 142 1 gusting 6 29.4
2018-Jul-15 18:45 145 2 gusting 6 29.4
2018-Jul-15 18:40 152 2 gusting 4 29.4
2018-Jul-15 18:35 153 1 gusting 2 29.4
2018-Jul-15 18:30 153 0 gusting 2 29.4
2018-Jul-15 18:25 153 0 gusting 2 29.4
2018-Jul-15 18:20 153 0 gusting 4 29.4
2018-Jul-15 18:15 159 1 gusting 6 29.4
2018-Jul-15 18:10 196 30.0
2018-Jul-15 18:05 196 30.0
2018-Jul-15 18:00 196 0 gusting 4 30.6
2018-Jul-15 17:55 196 1 gusting 4 30.6
2018-Jul-15 17:50 196 0 gusting 2 30.6
2018-Jul-15 17:45 196 0 gusting 6 30.6
2018-Jul-15 17:40 196 31.1
2018-Jul-15 17:35 196 0 gusting 6 31.1
2018-Jul-15 17:30 226 1 gusting 6 31.1
2018-Jul-15 17:25 235 1 gusting 4 31.1
2018-Jul-15 17:20 235 2 gusting 6 31.1
2018-Jul-15 17:15 236 1 gusting 6 31.1
2018-Jul-15 17:10 236 3 gusting 7 31.1
2018-Jul-15 17:05 209 0 gusting 6 31.1
2018-Jul-15 17:00 225 2 gusting 6 31.1
2018-Jul-15 16:55 222 4 gusting 6 31.1
2018-Jul-15 16:50 223 4 gusting 6 31.7
2018-Jul-15 16:45 229 5 gusting 10 31.7
2018-Jul-15 16:40 209 0 gusting 5 31.7
2018-Jul-15 16:35 215 32.2
2018-Jul-15 16:25 236 32.2
2018-Jul-15 16:20 223 5 gusting 6 32.8
2018-Jul-15 16:15 219 1 gusting 5 32.8
2018-Jul-15 16:10 227 1 gusting 6 33.3
2018-Jul-15 16:05 227 33.3
2018-Jul-15 16:00 216 0 gusting 6 33.3
2018-Jul-15 15:55 192 3 gusting 8 33.3
2018-Jul-15 15:50 219 2 gusting 7 33.3
2018-Jul-15 15:45 231 2 gusting 7 33.3
2018-Jul-15 15:40 230 1 gusting 8 33.3
2018-Jul-15 15:35 219 4 gusting 8 33.3
2018-Jul-15 15:30 238 3 gusting 10 33.9
2018-Jul-15 15:25 302 1 gusting 6 33.9
2018-Jul-15 15:20 240 4 gusting 6 33.9
2018-Jul-15 15:15 240 2 gusting 6 33.3
2018-Jul-15 15:10 235 4 gusting 7 33.3
2018-Jul-15 15:05 237 5 gusting 8 33.3
2018-Jul-15 15:00 257 5 gusting 10 33.3
2018-Jul-15 14:55 232 0 gusting 6 33.3
2018-Jul-15 14:50 245 4 gusting 8 33.3
2018-Jul-15 14:45 247 5 gusting 10 33.3
2018-Jul-15 14:40 234 2 gusting 10 33.3
2018-Jul-15 14:35 251 2 gusting 6 33.3
2018-Jul-15 14:30 228 3 gusting 8 33.3
2018-Jul-15 14:25 238 5 gusting 12 33.3
2018-Jul-15 14:20 240 3 gusting 8 32.8
2018-Jul-15 14:15 227 2 gusting 6 33.3
2018-Jul-15 14:10 256 4 gusting 10 33.3
2018-Jul-15 14:05 272 2 gusting 6 33.9
2018-Jul-15 14:00 266 4 gusting 10 33.3
2018-Jul-15 13:55 233 4 gusting 11 33.3
2018-Jul-15 13:50 248 5 gusting 8 33.3
2018-Jul-15 13:45 234 3 gusting 6 33.3
2018-Jul-15 13:40 266 5 gusting 10 33.9
2018-Jul-15 13:35 274 3 gusting 6 33.9
2018-Jul-15 13:30 268 6 gusting 12 33.9
2018-Jul-15 13:25 267 5 gusting 12 33.9
2018-Jul-15 13:20 269 5 gusting 13 33.9
2018-Jul-15 13:15 280 2 gusting 6 34.4
2018-Jul-15 13:10 264 3 gusting 7 33.9
2018-Jul-15 13:05 287 3 gusting 6 33.3
2018-Jul-15 13:00 295 5 gusting 8 33.3
2018-Jul-15 12:55 323 6 gusting 11 33.3
2018-Jul-15 12:50 268 3 gusting 8 33.3
2018-Jul-15 12:45 272 5 gusting 10 33.3
2018-Jul-15 12:40 269 7 gusting 13 33.3
2018-Jul-15 12:35 311 4 gusting 11 33.3
2018-Jul-15 12:30 259 5 gusting 10 33.3
2018-Jul-15 12:25 284 6 gusting 11 33.3
2018-Jul-15 12:20 260 3 gusting 7 33.3
2018-Jul-15 12:15 314 4 gusting 10 33.3
2018-Jul-15 12:10 260 5 gusting 10 33.3
2018-Jul-15 12:05 275 4 gusting 7 33.3
2018-Jul-15 12:00 276 0 gusting 6 33.3
2018-Jul-15 11:55 291 2 gusting 13 33.3
2018-Jul-15 11:50 274 3 gusting 8 32.8
2018-Jul-15 11:45 281 5 gusting 11 32.2
2018-Jul-15 11:40 264 5 gusting 11 32.8
2018-Jul-15 11:35 283 4 gusting 12 32.8
2018-Jul-15 11:30 273 6 gusting 10 32.8
2018-Jul-15 11:25 263 5 gusting 12 32.2
2018-Jul-15 11:20 261 4 gusting 8 32.8
2018-Jul-15 11:15 278 4 gusting 8 32.8
2018-Jul-15 11:10 268 4 gusting 8 32.8
2018-Jul-15 11:05 272 5 gusting 10 32.2
2018-Jul-15 11:00 278 6 gusting 11 32.2
2018-Jul-15 10:55 270 6 gusting 13 32.2
2018-Jul-15 10:50 271 4 gusting 10 32.2
2018-Jul-15 10:45 286 4 gusting 7 32.8
2018-Jul-15 10:40 273 2 gusting 10 32.2
2018-Jul-15 10:35 285 3 gusting 12 32.2
2018-Jul-15 10:30 309 3 gusting 7 32.2
2018-Jul-15 10:25 269 5 gusting 11 31.7
2018-Jul-15 10:20 287 5 gusting 10 31.7
2018-Jul-15 10:15 270 5 gusting 11 31.1
2018-Jul-15 10:10 251 3 gusting 11 31.1
2018-Jul-15 10:05 275 5 gusting 12 31.7
2018-Jul-15 10:00 274 4 gusting 8 31.7
2018-Jul-15 09:55 267 3 gusting 10 31.7
2018-Jul-15 09:50 303 3 gusting 10 31.1
2018-Jul-15 09:45 270 3 gusting 7 31.1
2018-Jul-15 09:40 280 4 gusting 8 31.1
2018-Jul-15 09:35 271 6 gusting 10 31.1
2018-Jul-15 09:30 273 6 gusting 10 31.1
2018-Jul-15 09:25 278 4 gusting 11 31.1
2018-Jul-15 09:20 321 5 gusting 8 31.1
2018-Jul-15 09:15 279 4 gusting 12 30.6
2018-Jul-15 09:10 270 6 gusting 12 30.6
2018-Jul-15 09:05 291 4 gusting 11 30.6
2018-Jul-15 09:00 297 4 gusting 10 30.6
2018-Jul-15 08:55 275 4 gusting 10 30.6
2018-Jul-15 08:50 295 5 gusting 8 30.6
2018-Jul-15 08:45 293 6 gusting 10 30.0
2018-Jul-15 08:40 279 6 gusting 11 30.0
2018-Jul-15 08:35 320 5 gusting 12 30.0
2018-Jul-15 08:30 267 6 gusting 12 30.0
2018-Jul-15 08:25 273 3 gusting 6 30.0
2018-Jul-15 08:20 291 3 gusting 6 29.4
2018-Jul-15 08:15 289 2 gusting 6 30.0
2018-Jul-15 08:10 315 4 gusting 6 30.0
2018-Jul-15 08:05 274 4 gusting 6 29.4
2018-Jul-15 08:00 263 4 gusting 6 29.4
2018-Jul-15 07:55 302 2 gusting 5 29.4
2018-Jul-15 07:50 309 2 gusting 5 28.9
2018-Jul-15 07:45 298 4 gusting 6 28.9
2018-Jul-15 07:40 267 1 gusting 4 28.9
2018-Jul-15 07:35 332 4 gusting 6 28.9
2018-Jul-15 07:30 354 2 gusting 5 28.9
2018-Jul-15 07:25 359 4 gusting 6 28.3
2018-Jul-15 07:20 313 3 gusting 5 28.3
2018-Jul-15 07:15 296 2 gusting 2 28.3
2018-Jul-15 07:10 341 4 gusting 4 27.8
2018-Jul-15 07:05 319 1 gusting 10 27.8
2018-Jul-15 07:00 325 2 gusting 5 27.8
2018-Jul-15 06:55 321 6 gusting 8 27.8
2018-Jul-15 06:50 292 4 gusting 6 27.8
2018-Jul-15 06:45 345 3 gusting 7 27.2
2018-Jul-15 06:40 327 3 gusting 7 27.2
2018-Jul-15 06:35 346 6 gusting 6 27.2
2018-Jul-15 06:30 297 5 gusting 6 26.7
2018-Jul-15 06:25 297 6 gusting 8 26.7
2018-Jul-15 06:20 269 5 gusting 10 26.7
2018-Jul-15 06:15 312 5 gusting 8 26.7
2018-Jul-15 06:10 309 5 gusting 7 26.7
2018-Jul-15 06:05 319 6 gusting 7 26.7
2018-Jul-15 06:00 309 4 gusting 6 26.7
2018-Jul-15 05:55 307 3 gusting 5 26.1
2018-Jul-15 05:50 346 4 gusting 6 26.1
2018-Jul-15 05:45 009 6 gusting 8 26.1
2018-Jul-15 05:40 297 5 gusting 10 26.1
2018-Jul-15 05:35 295 2 gusting 5 25.6
2018-Jul-15 05:30 344 2 gusting 6 25.6
2018-Jul-15 05:25 292 4 gusting 6 25.6
2018-Jul-15 05:20 318 4 gusting 6 25.6
2018-Jul-15 05:15 311 1 gusting 6 25.6
2018-Jul-15 05:10 290 3 gusting 8 25.6
2018-Jul-15 05:05 268 5 gusting 6 25.6
2018-Jul-15 05:00 305 4 gusting 8 25.6
2018-Jul-15 04:55 312 5 gusting 7 25.6
2018-Jul-15 04:50 307 4 gusting 7 25.0
2018-Jul-15 04:45 310 5 gusting 12 25.0
2018-Jul-15 04:40 300 5 gusting 10 25.0
2018-Jul-15 04:35 282 6 gusting 10 25.0
2018-Jul-15 04:30 303 5 gusting 8 25.0
2018-Jul-15 04:25 300 5 gusting 7 25.0
2018-Jul-15 04:20 307 5 gusting 8 25.0
2018-Jul-15 04:15 288 5 gusting 10 25.0
2018-Jul-15 04:10 317 6 gusting 10 25.0
2018-Jul-15 04:05 313 4 gusting 8 25.0
2018-Jul-15 04:00 310 3 gusting 6 25.6
2018-Jul-15 03:55 326 2 gusting 5 25.6
2018-Jul-15 03:50 343 5 gusting 10 25.0
2018-Jul-15 03:45 303 1 gusting 5 25.0
2018-Jul-15 03:40 309 2 gusting 7 25.0
2018-Jul-15 03:35 321 2 gusting 6 25.0
2018-Jul-15 03:30 344 1 gusting 6 25.0
2018-Jul-15 03:25 300 2 gusting 6 25.6
2018-Jul-15 03:20 25.6
2018-Jul-15 03:15 307 3 gusting 6 25.6
2018-Jul-15 03:10 013 1 gusting 6 25.6
2018-Jul-15 03:05 25.6
2018-Jul-15 03:00 351 3 gusting 6 25.6
2018-Jul-15 02:55 288 2 gusting 4 25.6
2018-Jul-15 02:50 288 2 gusting 5 25.6
2018-Jul-15 02:45 285 3 gusting 6 25.6
2018-Jul-15 02:40 308 4 gusting 6 25.6
2018-Jul-15 02:35 292 4 gusting 7 25.6
2018-Jul-15 02:30 299 3 gusting 6 25.6
2018-Jul-15 02:25 287 3 gusting 7 25.6
2018-Jul-15 02:20 315 1 gusting 5 25.6
2018-Jul-15 02:15 313 1 gusting 4 25.6
2018-Jul-15 02:10 313 1 gusting 4 25.6
2018-Jul-15 02:05 311 1 gusting 6 25.6
2018-Jul-15 02:00 299 3 gusting 7 25.6
2018-Jul-15 01:55 298 3 gusting 6 25.6
2018-Jul-15 01:50 300 2 gusting 5 26.1
2018-Jul-15 01:45 308 2 gusting 6 26.1
2018-Jul-15 01:40 313 2 gusting 5 26.1
2018-Jul-15 01:35 354 2 gusting 10 26.1
2018-Jul-15 01:30 002 4 gusting 6 26.1
2018-Jul-15 01:25 313 2 gusting 5 26.1
2018-Jul-15 01:20 309 2 gusting 4 26.1
2018-Jul-15 01:15 309 1 gusting 5 26.1
2018-Jul-15 01:10 311 1 gusting 5 26.1
2018-Jul-15 01:05 292 2 gusting 5 26.1
2018-Jul-15 01:00 291 1 gusting 2 26.1
2018-Jul-15 00:55 291 2 gusting 4 26.1
2018-Jul-15 00:50 291 1 gusting 2 26.1
2018-Jul-15 00:45 291 3 gusting 5 26.1
2018-Jul-15 00:40 305 3 gusting 6 26.1
2018-Jul-15 00:35 308 3 gusting 6 26.1
2018-Jul-15 00:30 302 2 gusting 6 26.1
2018-Jul-15 00:25 316 3 gusting 7 26.7
2018-Jul-15 00:20 313 1 gusting 6 26.7
2018-Jul-15 00:15 313 2 gusting 6 26.7
2018-Jul-15 00:10 309 3 gusting 6 26.7
2018-Jul-15 00:05 313 2 gusting 6 26.7
2018-Jul-15 00:00 318 0 gusting 5 26.7
2018-Jul-14 23:55 318 0 gusting 4 26.7
2018-Jul-14 23:50 319 1 gusting 4 26.7
2018-Jul-14 23:45 319 0 gusting 2 26.7
2018-Jul-14 23:40 319 0 gusting 2 26.7
2018-Jul-14 23:35 319 1 gusting 4 26.7
2018-Jul-14 23:30 319 2 gusting 4 26.7
2018-Jul-14 23:25 321 0 gusting 1 27.2
2018-Jul-14 23:20 321 0 gusting 2 27.2
2018-Jul-14 23:15 323 2 gusting 4 27.2
2018-Jul-14 23:10 325 1 gusting 4 27.2
2018-Jul-14 23:05 328 1 gusting 4 27.2
2018-Jul-14 23:00 27.2
2018-Jul-14 22:55 27.2
2018-Jul-14 22:50 27.2
2018-Jul-14 22:45 27.2
2018-Jul-14 22:40 27.2
2018-Jul-14 22:35 27.2
2018-Jul-14 22:30 261 2 gusting 6 27.2
2018-Jul-14 22:25 313 0 gusting 2 27.2
2018-Jul-14 22:20 313 1 gusting 4 27.2
2018-Jul-14 22:15 315 1 gusting 2 27.8
2018-Jul-14 22:10 315 1 gusting 4 27.8
2018-Jul-14 22:05 314 2 gusting 6 27.8
2018-Jul-14 22:00 312 4 gusting 7 27.8
2018-Jul-14 21:55 311 5 gusting 10 27.8
2018-Jul-14 21:50 316 2 gusting 7 27.8
2018-Jul-14 21:45 296 2 gusting 7 27.8
2018-Jul-14 21:40 311 4 gusting 6 28.3
2018-Jul-14 21:35 309 2 gusting 6 28.3
2018-Jul-14 21:30 319 2 gusting 6 28.3
2018-Jul-14 21:25 303 2 gusting 6 28.3
2018-Jul-14 21:20 302 3 gusting 6 28.3
2018-Jul-14 21:15 313 2 gusting 6 28.3
2018-Jul-14 21:10 330 2 gusting 6 28.3
2018-Jul-14 21:05 326 1 gusting 5 28.3
2018-Jul-14 21:00 352 3 gusting 6 28.3
2018-Jul-14 20:55 341 1 gusting 6 28.3
2018-Jul-14 20:50 340 0 gusting 6 28.3
2018-Jul-14 20:45 344 2 gusting 7 28.3
2018-Jul-14 20:40 306 2 gusting 4 28.3
2018-Jul-14 20:35 306 1 gusting 6 28.3
2018-Jul-14 20:30 263 2 gusting 8 28.3
2018-Jul-14 20:25 266 2 gusting 6 28.3
2018-Jul-14 20:20 271 2 gusting 7 28.3
2018-Jul-14 20:15 299 4 gusting 8 28.3
2018-Jul-14 20:10 273 3 gusting 7 28.9
2018-Jul-14 20:05 286 2 gusting 6 28.9
2018-Jul-14 20:00 270 4 gusting 6 28.9
2018-Jul-14 19:55 270 2 gusting 7 28.9
2018-Jul-14 19:50 270 2 gusting 6 28.9
2018-Jul-14 19:45 301 2 gusting 6 28.9
2018-Jul-14 19:40 266 2 gusting 6 29.4
2018-Jul-14 19:35 279 1 gusting 7 29.4
2018-Jul-14 19:30 258 2 gusting 6 29.4
2018-Jul-14 19:25 263 0 gusting 6 29.4
2018-Jul-14 19:20 281 2 gusting 7 30.0
2018-Jul-14 19:15 290 2 gusting 6 30.0
2018-Jul-14 19:10 305 3 gusting 8 30.0
2018-Jul-14 19:05 306 2 gusting 6 30.0
2018-Jul-14 19:00 294 2 gusting 6 30.0
2018-Jul-14 18:55 299 2 gusting 6 30.6
2018-Jul-14 18:50 302 5 gusting 10 30.6
2018-Jul-14 18:45 304 4 gusting 7 30.6
2018-Jul-14 18:40 311 1 gusting 5 30.6
2018-Jul-14 18:35 312 2 gusting 5 30.6
2018-Jul-14 18:30 300 1 gusting 5 30.6
2018-Jul-14 18:25 301 1 gusting 6 30.6
2018-Jul-14 18:20 294 2 gusting 7 30.6
2018-Jul-14 18:15 303 4 gusting 6 30.6
2018-Jul-14 18:10 282 4 gusting 11 30.6
2018-Jul-14 18:05 290 4 gusting 8 30.6
2018-Jul-14 18:00 271 4 gusting 10 30.6
2018-Jul-14 17:55 304 4 gusting 7 31.1
2018-Jul-14 17:50 324 3 gusting 6 31.1
2018-Jul-14 17:45 293 4 gusting 7 31.1
2018-Jul-14 17:40 269 3 gusting 7 31.1
2018-Jul-14 17:35 278 4 gusting 8 31.1
2018-Jul-14 17:30 268 4 gusting 8 31.1
2018-Jul-14 17:25 308 2 gusting 6 31.7
2018-Jul-14 17:20 309 5 gusting 10 31.7
2018-Jul-14 17:15 310 3 gusting 6 31.7
2018-Jul-14 17:10 291 3 gusting 6 31.7
2018-Jul-14 17:05 269 6 gusting 13 31.7
2018-Jul-14 17:00 303 4 gusting 8 31.7
2018-Jul-14 16:55 301 5 gusting 10 31.7
2018-Jul-14 16:50 316 5 gusting 10 32.2
2018-Jul-14 16:45 303 5 gusting 8 32.2
2018-Jul-14 16:40 271 4 gusting 7 32.8
2018-Jul-14 16:35 269 1 gusting 6 32.8
2018-Jul-14 16:30 288 3 gusting 7 32.8
2018-Jul-14 16:25 273 4 gusting 5 32.8
2018-Jul-14 16:20 316 5 gusting 6 32.8
2018-Jul-14 16:15 280 4 gusting 6 32.8
2018-Jul-14 16:10 269 7 gusting 10 32.8
2018-Jul-14 16:05 259 8 gusting 10 32.8
2018-Jul-14 16:00 295 2 gusting 10 32.8
2018-Jul-14 15:55 311 5 gusting 10 33.3
2018-Jul-14 15:50 323 4 gusting 11 33.3
2018-Jul-14 15:45 317 5 gusting 10 32.8
2018-Jul-14 15:40 311 4 gusting 13 33.3
2018-Jul-14 15:35 273 5 gusting 12 33.3
2018-Jul-14 15:30 273 6 gusting 10 33.3
2018-Jul-14 15:25 291 7 gusting 12 33.3
2018-Jul-14 15:20 282 7 gusting 14 33.3
2018-Jul-14 15:15 276 5 gusting 12 33.3
2018-Jul-14 15:10 281 5 gusting 10 33.3
2018-Jul-14 15:05 279 4 gusting 12 33.9
2018-Jul-14 15:00 308 5 gusting 12 33.9
2018-Jul-14 14:55 272 4 gusting 10 33.3
2018-Jul-14 14:50 301 5 gusting 8 33.9
2018-Jul-14 14:45 301 5 gusting 10 33.9
2018-Jul-14 14:40 301 6 gusting 11 33.3
2018-Jul-14 14:35 316 6 gusting 15 33.3
2018-Jul-14 14:30 311 6 gusting 11 33.3
2018-Jul-14 14:25 310 5 gusting 12 33.9
2018-Jul-14 14:20 310 6 gusting 12 33.9
2018-Jul-14 14:15 277 4 gusting 10 33.9
2018-Jul-14 14:10 311 6 gusting 11 33.9
2018-Jul-14 14:05 299 6 gusting 12 33.9
2018-Jul-14 14:00 271 5 gusting 10 33.9
2018-Jul-14 13:55 303 6 gusting 10 33.9
2018-Jul-14 13:50 282 5 gusting 10 33.9
2018-Jul-14 13:45 316 5 gusting 12 33.9
2018-Jul-14 13:40 295 6 gusting 12 33.9
2018-Jul-14 13:35 302 4 gusting 13 33.9
2018-Jul-14 13:30 297 6 gusting 11 33.3
2018-Jul-14 13:25 290 6 gusting 17 33.3
2018-Jul-14 13:20 318 5 gusting 8 33.3
2018-Jul-14 13:15 304 6 gusting 10 33.3
2018-Jul-14 13:10 303 5 gusting 12 33.3
2018-Jul-14 13:05 282 5 gusting 8 33.3
2018-Jul-14 13:00 313 5 gusting 10 33.3
2018-Jul-14 12:55 299 6 gusting 13 33.3
2018-Jul-14 12:50 289 4 gusting 11 33.3
2018-Jul-14 12:45 283 5 gusting 10 33.9
2018-Jul-14 12:40 322 4 gusting 11 33.3
2018-Jul-14 12:35 302 5 gusting 10 33.3
2018-Jul-14 12:30 290 5 gusting 12 33.3
2018-Jul-14 12:25 343 6 gusting 12 32.8
2018-Jul-14 12:20 286 6 gusting 13 33.3
2018-Jul-14 12:15 282 5 gusting 8 33.3
2018-Jul-14 12:10 299 5 gusting 12 33.3
2018-Jul-14 12:05 317 4 gusting 12 33.3
2018-Jul-14 12:00 280 6 gusting 10 32.8
2018-Jul-14 11:55 276 5 gusting 8 33.3
2018-Jul-14 11:50 275 3 gusting 10 33.3
2018-Jul-14 11:45 298 3 gusting 7 33.3
2018-Jul-14 11:40 299 5 gusting 8 33.3
2018-Jul-14 11:35 002 4 gusting 7 32.8
2018-Jul-14 11:30 308 5 gusting 11 32.8
2018-Jul-14 11:25 312 5 gusting 13 32.8
2018-Jul-14 11:20 290 5 gusting 7 32.8
2018-Jul-14 11:15 304 6 gusting 13 32.2
2018-Jul-14 11:10 298 6 gusting 10 32.2
2018-Jul-14 11:05 301 6 gusting 10 32.8
2018-Jul-14 11:00 335 5 gusting 11 32.2
2018-Jul-14 10:55 305 4 gusting 12 32.8
2018-Jul-14 10:50 271 6 gusting 12 32.2
2018-Jul-14 10:45 308 5 gusting 10 32.2
2018-Jul-14 10:40 273 6 gusting 13 32.2
2018-Jul-14 10:35 299 6 gusting 10 32.2
2018-Jul-14 10:30 311 6 gusting 12 32.2
2018-Jul-14 10:25 321 5 gusting 10 32.2
2018-Jul-14 10:20 302 5 gusting 10 32.8
2018-Jul-14 10:15 293 4 gusting 7 32.2
2018-Jul-14 10:10 314 4 gusting 8 32.2
2018-Jul-14 10:05 319 4 gusting 7 32.2
2018-Jul-14 10:00 290 5 gusting 10 32.2
2018-Jul-14 09:55 285 3 gusting 8 31.7
2018-Jul-14 09:50 302 4 gusting 13 31.7
2018-Jul-14 09:45 002 4 gusting 12 31.7
2018-Jul-14 09:40 306 6 gusting 10 31.7
2018-Jul-14 09:35 312 5 gusting 10 31.7
2018-Jul-14 09:30 282 4 gusting 11 31.7
2018-Jul-14 09:25 278 4 gusting 10 31.7
2018-Jul-14 09:20 312 5 gusting 11 31.1
2018-Jul-14 09:15 325 5 gusting 10 31.1
2018-Jul-14 09:10 313 4 gusting 10 31.1
2018-Jul-14 09:05 302 5 gusting 12 31.1
2018-Jul-14 09:00 343 4 gusting 8 31.1
2018-Jul-14 08:55 315 6 gusting 10 31.1
2018-Jul-14 08:50 301 5 gusting 10 31.1
2018-Jul-14 08:45 323 4 gusting 7 30.6
2018-Jul-14 08:40 335 2 gusting 6 30.6
2018-Jul-14 08:35 289 3 gusting 6 30.6
2018-Jul-14 08:30 316 4 gusting 7 30.6
2018-Jul-14 08:25 298 6 gusting 7 30.6
2018-Jul-14 08:20 314 4 gusting 7 30.6
2018-Jul-14 08:15 268 2 gusting 6 30.6
2018-Jul-14 08:10 304 4 gusting 5 30.6
2018-Jul-14 08:05 319 2 gusting 5 30.0
2018-Jul-14 08:00 346 2 gusting 5 29.4